Miscellaneous Local Product
Issued by NWS North Platte, NE

Home | Current Version | Previous Version | Text Only | Print | Product List | Glossary On
Versions: 1 2 3 4 5 6 7 8 9 10 11 12 13 14 15 16 17 18 19 20 21 22 23 24 25 26 27 28 29 30 31 32 33 34 35 36 37 38 39 40 41 42 43 44 45 46 47 48 49 50
000
AXUS43 KLBF 222210
MISLBF


WESTERN AND NORTH CENTRAL NEBRASKA HOURLY WEATHER ROUNDUP
NATIONAL WEATHER SERVICE NORTH PLATTE NE
500 PM CDT WED MAR 22 2017

NOTE: "FAIR" INDICATES FEW OR NO CLOUDS BELOW 12,000 FEET WITH NO
SIGNIFICANT WEATHER AND/OR OBSTRUCTIONS TO VISIBILITY.

NOTE: STATIONS NOT REPORTING VARIABLES SUCH AS SKY/WEATHER OR
PRESSURE ARE PROVIDED BY RAWS AND APRS NETWORKS AND ARE NOT UNDER
NATIONAL WEATHER SERVICE QUALITY CONTROL.

...OBSERVATIONS IN AND NEAR THE EASTERN PANHANDLE OF NEBRASKA...

CITY           SKY/WX    TMP DP  RH WIND       PRES   REMARKS
PINE RIDGE     SUNNY     64  39  39 S23G29    29.81F
CHADRON        CLOUDY    66  36  32 S17       29.80F
ALLIANCE       SUNNY     64  35  34 S26G35    29.84F
SIDNEY         CLOUDY    64  35  34 S21       29.89F
CRESCENT LAKE    N/A     61  37  40 S16G23      N/A
$$

...OBSERVATIONS IN NORTHERN NEBRASKA AND FAR SOUTHERN SOUTH DAKOTA...

CITY           SKY/WX    TMP DP  RH WIND       PRES   REMARKS
WINNER         FAIR      55  29  36 S28G35    29.95F
VALENTINE      SUNNY     57  32  38 S23G35    29.93F
THEDFORD       SUNNY     52  31  45 S21G26    29.99F
AINSWORTH      CLOUDY    49  31  48 S25       29.99S
O`NEILL        CLOUDY    51  22  32 SE21G30   30.06F
ORD            CLOUDY    53  21  28 SE20G28   30.06F
BROKEN BOW     CLOUDY    52  27  38 S22G35    30.04F
VALENTINE NWR    N/A     53  33  46 S20G30      N/A
HALSEY           N/A     48  27  44 S14G23      N/A
BUTTE            N/A     45  29  52 SE23G30     N/A
CHAMBERS         N/A     53  28  37 S5G13       N/A
EWING            N/A     50  23  34 S12G20      N/A
$$

...OBSERVATIONS IN SOUTHWEST NEBRASKA AND FAR NORTHEAST COLORADO...

CITY           SKY/WX    TMP DP  RH WIND       PRES   REMARKS
WRAY           FAIR      64  34  32 SE23G30   29.94F
HOLYOKE        FAIR      64  34  32 S23G30    29.92F
IMPERIAL       SUNNY     59  34  39 S23G31    29.96F
OGALLALA       SUNNY     63  35  34 S21       29.94F
NORTH PLATTE   SUNNY     54  30  40 S21G26    30.01F
MCCOOK         CLOUDY    54  33  45 SE18G25   30.02F
LEXINGTON      CLOUDY    51  27  39 S17       30.06F
STAPLETON        N/A     51  32  48 S3G12       N/A
GOTHENBURG       N/A     49  28  43 SE13        N/A
CALLAWAY         N/A     47  30  51 S23         N/A
$$

...OBSERVATIONS IN CENTRAL LINCOLN COUNTY AREA...

CITY           SKY/WX    TMP DP  RH WIND       PRES   REMARKS
N.P. AIRPORT   SUNNY     54  30  40 S21G26    30.01F
N.P. DOWNTOWN    N/A     52  32  47 SE8G17      N/A
N.P. SOUTHEAST   N/A     52  31  44 SE12G20     N/A
N.P. HILLCREST   N/A     52  32  47 S17G26      N/A
$$

...SOME OBSERVATIONS FROM AROUND THE REGION...

CITY           SKY/WX    TMP DP  RH WIND       PRES   REMARKS
DENVER         CLOUDY    70  33  25 N12       29.85F
LIMON          CLOUDY    64  36  35 SE18G28   29.92F
ASPEN          CLOUDY    56  24  29 S18G29    30.05F
LARAMIE        CLOUDY    65  17  15 SW38G51   29.89F
GILLETTE       CLOUDY    63  39  41 NE12      29.79F
CHEYENNE       CLOUDY    67  29  24 S15       29.89F
SCOTTSBLUFF    SUNNY     71  34  25 SE13      29.83S
GRAND ISLAND   CLOUDY    56  23  27 SE20G26   30.12F
OMAHA          CLOUDY    51  22  31 SE17      30.23F
SIOUX FALLS    CLOUDY    38  24  57 SE17G25   30.21F WCI  28
PIERRE         SUNNY     55  31  39 S28G40    29.89F
RAPID CITY     SUNNY     62  43  49 N12       29.76F
BISMARCK       MOSUNNY   48  31  51 S16       29.92F
KANSAS CITY    MOSUNNY   55  26  32 E17       30.23F
HILL CITY      CLOUDY    52  32  46 S17G23    30.08F
WICHITA        CLOUDY    57  38  48 SE13      30.13S
DODGE CITY     SUNNY     62  37  39 SE15G24   30.05F
OKLAHOMA CITY  CLOUDY    71  56  58 E15       30.06S
DALLAS         PTSUNNY   83  63  50 SE16      30.01F
AMARILLO       SUNNY     69  48  47 S14       30.04F
$$




USA.gov is the U.S. government's official web portal to all federal, state and local government web resources and services.